Imperial, CA

8:23 PM PDT on October 18, 2019 (GMT -0700)
Imperial County

Weather History for KIPL - September, 2019

Change the Weather History Date:

Wednesday, September 18, 2019

  Actual Average Record
Temperature  
Mean Temperature 84 °F -  
Max Temperature 100 °F 98 °F 111 °F (1956)
Min Temperature 69 °F 71 °F 57 °F (1993)
Cooling Degree Days 20    
Growing Degree Days 34 (Base 50)    
Moisture  
Dew Point 27 °F    
Average Humidity 14    
Maximum Humidity 33    
Minimum Humidity 5    
Precipitation  
Precipitation 0.00 in - - ()
Sea Level Pressure  
Sea Level Pressure 29.76 in    
Wind  
Wind Speed 6 mph (WNW)    
Max Wind Speed 13 mph    
Max Gust Speed -    
Visibility 10 miles    
Events      
Averages and records for this station are not official NWS values.
T = Trace of Precipitation, MM = Missing Value Source: NWS Daily Summary

Daily Weather History Graph

Daily Weather History Graph

Search for Another Location

Airport or City:

Astronomy

Sep. 18, 2019 Rise Set
Actual Time 6:27 AM PDT 6:44 PM PDT
Civil Twilight 6:03 AM PDT 7:09 PM PDT
Nautical Twilight 5:34 AM PDT 7:38 PM PDT
Astronomical Twilight 5:05 AM PDT 8:07 PM PDT
Moon 9:34 PM PDT (9/18) 10:23 AM PDT (9/18)
Length of Visible Light 13h 06m
Length of Day
12h 16m
Waning Gibbous, 82% of the Moon is Illuminated
Sep 18
Waning Gibbous
Sep 21
Last Quarter
Sep 28
New
Oct 5
First Quarter
Oct 13
Full

Hourly Weather History & Observations

Time (PDT) Temp. Dew Point Humidity Pressure Visibility Wind Dir Wind Speed Gust Speed Precip Events Conditions
12:53 AM 79.0 °F 34.0 °F 20% 29.77 in 10.0 mi West 8.1 mph - N/A   Clear
1:53 AM 78.1 °F 34.0 °F 20% 29.77 in 10.0 mi NW 4.6 mph - N/A   Clear
2:53 AM 78.1 °F 26.1 °F 15% 29.78 in 10.0 mi North 5.8 mph - N/A   Clear
3:53 AM 75.9 °F 30.9 °F 19% 29.77 in 10.0 mi NNW 5.8 mph - N/A   Clear
4:53 AM 75.0 °F 27.0 °F 17% 29.77 in 10.0 mi NNW 8.1 mph - N/A   Clear
5:53 AM 71.1 °F 32.0 °F 24% 29.79 in 10.0 mi East 4.6 mph - N/A   Clear
6:53 AM 69.1 °F 39.0 °F 33% 29.80 in 10.0 mi Calm Calm - N/A   Clear
7:53 AM 75.0 °F 34.0 °F 22% 29.82 in 10.0 mi Calm Calm - N/A   Clear
8:53 AM 82.0 °F 26.1 °F 13% 29.83 in 10.0 mi Calm Calm - N/A   Clear
9:53 AM 87.1 °F 33.1 °F 15% 29.83 in 10.0 mi Calm Calm - N/A   Clear
10:53 AM 91.0 °F 23.0 °F 8% 29.82 in 10.0 mi West 3.5 mph - N/A   Clear
11:53 AM 93.9 °F 27.0 °F 9% 29.81 in 10.0 mi Variable 3.5 mph - N/A   Clear
12:53 PM 96.1 °F 21.9 °F 7% 29.78 in 10.0 mi Calm Calm - N/A   Clear
1:53 PM 97.0 °F 17.1 °F 5% 29.75 in 10.0 mi Variable 3.5 mph - N/A   Clear
2:53 PM 99.0 °F 16.0 °F 5% 29.73 in 10.0 mi SSW 8.1 mph - N/A   Clear
3:53 PM 100.0 °F 18.0 °F 5% 29.71 in 10.0 mi South 8.1 mph - N/A   Clear
4:53 PM 98.1 °F 32.0 °F 10% 29.70 in 10.0 mi West 12.7 mph - N/A   Clear
5:53 PM 93.0 °F 32.0 °F 12% 29.70 in 10.0 mi West 12.7 mph - N/A   Clear
6:53 PM 88.0 °F 28.9 °F 12% 29.70 in 10.0 mi West 11.5 mph - N/A   Clear
7:53 PM 87.1 °F 25.0 °F 10% 29.71 in 10.0 mi WNW 12.7 mph - N/A   Clear
8:53 PM 82.9 °F 28.0 °F 14% 29.71 in 10.0 mi WNW 11.5 mph - N/A   Clear
9:53 PM 81.0 °F 25.0 °F 13% 29.72 in 10.0 mi NW 8.1 mph - N/A   Clear
10:53 PM 79.0 °F 21.0 °F 12% 29.73 in 10.0 mi WNW 9.2 mph - N/A   Clear
11:53 PM 75.0 °F 21.9 °F 14% 29.73 in 10.0 mi West 9.2 mph - N/A   Clear